Charlevoix, MI

3:19 PM EDT on May 22, 2018 (GMT -0400)
Charlevoix Municipal

Weather History for KCVX - August, 2012

Change the Weather History Date:

Friday, August 17, 2012

  Actual Average Record
Temperature  
Mean Temperature 64 °F -  
Max Temperature 68 °F 68 °F 84 °F (2008)
Min Temperature 60 °F 55 °F 51 °F (2007)
Degree Days  
Heating Degree Days 1    
Growing Degree Days 14 (Base 50)    
Moisture  
Dew Point 47 °F    
Average Humidity 57    
Maximum Humidity 82    
Minimum Humidity 31    
Precipitation  
Precipitation 0.00 in - - ()
Sea Level Pressure  
Sea Level Pressure 29.92 in    
Wind  
Wind Speed 16 mph (NW)    
Max Wind Speed 23 mph    
Max Gust Speed 31 mph    
Visibility 10 miles    
Events Rain    
Averages and records for this station are not official NWS values.
T = Trace of Precipitation, MM = Missing Value Source: NWS Daily Summary

Daily Weather History Graph

Daily Weather History Graph

Search for Another Location

Airport or City:

Astronomy

Aug. 17, 2012 Rise Set
Actual Time 6:45 AM EDT 8:44 PM EDT
Civil Twilight 6:13 AM EDT 9:15 PM EDT
Nautical Twilight 5:34 AM EDT 9:54 PM EDT
Astronomical Twilight 4:50 AM EDT 10:37 PM EDT
Moon 6:50 AM EDT (8/17) 8:21 PM EDT (8/17)
Length of Visible Light 15h 02m
Length of Day
13h 58m
New Moon, 0% of the Moon is Illuminated
Aug 17
New Moon
Aug 24
First Quarter
Aug 31
Full
Sep 8
Last Quarter
Sep 15
New

Hourly Weather History & Observations

Time (EDT) Temp. Dew Point Humidity Pressure Visibility Wind Dir Wind Speed Gust Speed Precip Events Conditions
12:15 AM 65.8 °F 56.7 °F 72% 29.80 in 10.0 mi WNW 17.3 mph 23.0 mph N/A   Overcast
12:34 AM 64.9 °F 56.5 °F 74% 29.80 in 10.0 mi NW 19.6 mph 31.1 mph N/A   Overcast
12:54 AM 64.0 °F 56.3 °F 76% 29.80 in 10.0 mi NW 17.3 mph 25.3 mph N/A   Overcast
1:14 AM 63.9 °F 53.4 °F 69% 29.82 in 10.0 mi NW 23.0 mph 28.8 mph N/A   Overcast
1:34 AM 63.9 °F 54.5 °F 72% 29.82 in 10.0 mi NW 17.3 mph 23.0 mph N/A   Overcast
1:55 AM 63.5 °F 54.1 °F 72% 29.83 in 10.0 mi NW 15.0 mph 21.9 mph N/A   Overcast
2:14 AM 63.5 °F 54.9 °F 73% 29.83 in 10.0 mi NW 15.0 mph 20.7 mph N/A   Overcast
2:34 AM 62.4 °F 54.0 °F 74% 29.83 in 7.0 mi NW 16.1 mph 26.5 mph N/A Rain Light Rain
2:54 AM 61.0 °F 55.4 °F 82% 29.83 in 10.0 mi NNW 10.4 mph 23.0 mph N/A Rain Light Rain
3:14 AM 62.2 °F 55.0 °F 77% 29.83 in 10.0 mi NW 16.1 mph - N/A   Overcast
3:35 AM 61.3 °F 53.8 °F 76% 29.83 in 10.0 mi NW 13.8 mph 19.6 mph N/A   Overcast
3:54 AM 61.5 °F 54.7 °F 78% 29.83 in 10.0 mi NW 12.7 mph 18.4 mph N/A Rain Rain
4:14 AM 61.0 °F 54.7 °F 80% 29.83 in 10.0 mi WNW 12.7 mph - N/A   Overcast
4:34 AM 61.9 °F 53.6 °F 74% 29.84 in 10.0 mi WNW 15.0 mph 21.9 mph N/A   Overcast
4:54 AM 61.9 °F 54.1 °F 76% 29.83 in 10.0 mi WNW 17.3 mph 26.5 mph N/A   Mostly Cloudy
5:34 AM 61.5 °F 53.6 °F 75% 29.85 in 10.0 mi WNW 18.4 mph 24.2 mph N/A   Mostly Cloudy
5:55 AM 61.3 °F 53.2 °F 75% 29.86 in 10.0 mi WNW 17.3 mph 24.2 mph N/A   Overcast
6:34 AM 60.1 °F 51.8 °F 74% 29.88 in 10.0 mi NNW 16.1 mph 27.6 mph N/A   Overcast
6:55 AM 60.1 °F 51.8 °F 74% 29.88 in 10.0 mi NW 15.0 mph 24.2 mph N/A   Overcast
7:34 AM 60.1 °F 50.4 °F 70% 29.89 in 10.0 mi NW 10.4 mph 20.7 mph N/A   Mostly Cloudy
7:54 AM 60.1 °F 49.5 °F 68% 29.90 in 10.0 mi NW 15.0 mph 20.7 mph N/A   Mostly Cloudy
8:14 AM 60.8 °F 50.2 °F 68% 29.90 in 10.0 mi NW 15.0 mph 20.7 mph N/A   Overcast
8:34 AM 60.3 °F 50.5 °F 70% 29.90 in 10.0 mi WNW 15.0 mph 21.9 mph N/A   Mostly Cloudy
8:54 AM 60.8 °F 50.0 °F 68% 29.90 in 10.0 mi NW 18.4 mph 24.2 mph N/A   Mostly Cloudy
9:14 AM 61.2 °F 50.0 °F 67% 29.90 in 10.0 mi WNW 16.1 mph 26.5 mph N/A   Mostly Cloudy
9:34 AM 61.9 °F 50.4 °F 66% 29.90 in 10.0 mi WNW 16.1 mph 23.0 mph N/A   Mostly Cloudy
9:54 AM 63.1 °F 51.4 °F 66% 29.90 in 10.0 mi NW 13.8 mph 23.0 mph N/A   Mostly Cloudy
10:14 AM 63.9 °F 50.5 °F 62% 29.90 in 10.0 mi WNW 20.7 mph 25.3 mph N/A   Mostly Cloudy
10:34 AM 63.5 °F 50.4 °F 62% 29.90 in 10.0 mi WNW 15.0 mph 23.0 mph N/A   Mostly Cloudy
10:54 AM 63.5 °F 48.4 °F 58% 29.91 in 10.0 mi WNW 16.1 mph 25.3 mph N/A   Mostly Cloudy
11:14 AM 64.9 °F 48.2 °F 55% 29.92 in 10.0 mi WNW 19.6 mph 25.3 mph N/A   Scattered Clouds
11:34 AM 64.0 °F 47.7 °F 55% 29.92 in 10.0 mi WNW 15.0 mph 23.0 mph N/A   Scattered Clouds
11:54 AM 64.2 °F 48.4 °F 56% 29.92 in 10.0 mi WNW 13.8 mph 19.6 mph N/A   Scattered Clouds
12:15 PM 64.4 °F 48.6 °F 56% 29.93 in 10.0 mi WNW 16.1 mph 20.7 mph N/A   Mostly Cloudy
12:34 PM 66.0 °F 48.0 °F 52% 29.94 in 10.0 mi WNW 17.3 mph 25.3 mph N/A   Scattered Clouds
12:54 PM 65.8 °F 48.0 °F 53% 29.94 in 10.0 mi West 17.3 mph - N/A   Mostly Cloudy
1:15 PM 65.3 °F 48.0 °F 54% 29.94 in 10.0 mi WNW 18.4 mph 21.9 mph N/A   Scattered Clouds
1:34 PM 66.4 °F 48.6 °F 53% 29.95 in 10.0 mi West 17.3 mph - N/A   Scattered Clouds
1:54 PM 66.6 °F 48.0 °F 51% 29.95 in 10.0 mi West 16.1 mph 21.9 mph N/A   Scattered Clouds
2:15 PM 66.9 °F 46.4 °F 48% 29.96 in 10.0 mi West 15.0 mph 20.7 mph N/A   Scattered Clouds
2:34 PM 66.9 °F 47.5 °F 50% 29.95 in 10.0 mi West 16.1 mph 21.9 mph N/A   Scattered Clouds
2:54 PM 67.8 °F 47.5 °F 48% 29.95 in 10.0 mi West 16.1 mph - N/A   Scattered Clouds
3:14 PM 68.7 °F 46.9 °F 46% 29.95 in 10.0 mi West 16.1 mph 23.0 mph N/A   Clear
3:34 PM 68.0 °F 45.9 °F 45% 29.95 in 10.0 mi West 15.0 mph 21.9 mph N/A   Clear
3:54 PM 68.9 °F 44.6 °F 42% 29.96 in 10.0 mi WNW 11.5 mph - N/A   Clear
4:14 PM 68.9 °F 44.6 °F 42% 29.96 in 10.0 mi WNW 15.0 mph - N/A   Clear
4:34 PM 68.5 °F 43.9 °F 41% 29.97 in 10.0 mi NW 13.8 mph - N/A   Clear
4:54 PM 68.4 °F 41.7 °F 38% 29.97 in 10.0 mi WNW 12.7 mph 19.6 mph N/A   Clear
5:14 PM 68.5 °F 41.0 °F 37% 29.97 in 10.0 mi NW 13.8 mph 20.7 mph N/A   Clear
5:34 PM 68.7 °F 39.0 °F 34% 29.97 in 10.0 mi NW 13.8 mph 18.4 mph N/A   Clear
5:54 PM 68.2 °F 37.2 °F 32% 29.97 in 10.0 mi WNW 15.0 mph 18.4 mph N/A   Clear
6:14 PM 68.2 °F 37.0 °F 32% 29.97 in 10.0 mi NW 12.7 mph - N/A   Clear
6:34 PM 68.0 °F 36.5 °F 31% 29.98 in 10.0 mi NW 12.7 mph - N/A   Clear
6:54 PM 67.3 °F 36.9 °F 33% 29.98 in 10.0 mi WNW 13.8 mph 18.4 mph N/A   Clear
7:14 PM 66.6 °F 39.7 °F 37% 29.98 in 10.0 mi NW 11.5 mph 18.4 mph N/A   Clear
7:34 PM 66.2 °F 36.0 °F 33% 29.98 in 10.0 mi WNW 12.7 mph 18.4 mph N/A   Clear
7:54 PM 65.7 °F 37.2 °F 35% 29.98 in 10.0 mi NW 11.5 mph 19.6 mph N/A   Clear
8:14 PM 65.1 °F 37.2 °F 36% 29.98 in 10.0 mi NW 11.5 mph - N/A   Clear
8:54 PM 64.0 °F 38.3 °F 39% 29.99 in 10.0 mi NW 10.4 mph 18.4 mph N/A   Clear
9:14 PM 63.7 °F 42.6 °F 46% 29.99 in 10.0 mi NNW 11.5 mph 17.3 mph N/A   Clear
9:34 PM 63.5 °F 42.3 °F 46% 30.00 in 10.0 mi NNW 11.5 mph 17.3 mph N/A   Clear
9:54 PM 63.3 °F 41.0 °F 44% 30.01 in 10.0 mi NNW 11.5 mph 17.3 mph N/A   Clear
10:15 PM 63.0 °F 39.9 °F 43% 30.01 in 10.0 mi NW 9.2 mph - N/A   Clear
10:34 PM 62.8 °F 41.9 °F 46% 30.01 in 10.0 mi NW 9.2 mph - N/A   Clear
10:54 PM 62.8 °F 43.2 °F 49% 30.01 in 10.0 mi NW 6.9 mph - N/A   Clear
11:15 PM 62.6 °F 44.2 °F 51% 30.01 in 10.0 mi NW 6.9 mph - N/A   Clear
11:34 PM 63.1 °F 45.7 °F 53% 30.00 in 10.0 mi NW 9.2 mph - N/A   Clear
11:54 PM 63.0 °F 46.2 °F 54% 30.00 in 10.0 mi WNW 6.9 mph - N/A   Clear